Lexington Weather

Lexington, Massachusetts, USA

34°F
4/16/2021 10:57am 
  • Lexington Conditions: Snow, Fog, Overcast
  • Temperature: 34.0°F / 1.1°CWarmer 0.2°F than last hour.
  • Dew Point: 32.7°FIncreased 0.2°Fsince last hour.
  • Relative Humidity: 95
  • Wind: Wind from N N 2 mph, 10-min avg: 2 mph, gust: 4 mph
  • Barometer: 29.47 inFalling 0.03  inHg/hr Falling Slowly
  • Visibility: ½ mile
  • Snow Today: 1.3 in
  •   

Regional Weather Roundup
for Boston / Norton, MA

        
000
ASUS41 KBOX 101204
RWRBOX

REGIONAL WEATHER ROUNDUP
NATIONAL WEATHER SERVICE BOSTON/NORTON MA
800 AM EDT SAT APR 10 2021

NOTE:  "FAIR" INDICATES FEW OR NO CLOUDS BELOW 12,000 FEET WITH NO 
SIGNIFICANT WEATHER AND/OR OBSTRUCTIONS TO VISIBILITY.

MAZALL-101300-
EASTERN MASSACHUSETTS
  
CITY           SKY/WX    TMP DP  RH WIND       PRES   REMARKS
BOSTON         PTSUNNY   54  44  69 S5        30.00F                  
6HR MIN TEMP:  48; 6HR MAX TEMP:  54;                                

BEVERLY        NOT AVBL                                               
LAWRENCE       SUNNY     51  44  77 S5        30.00F                  
BEDFORD        MOSUNNY   52  44  74 S3        29.99F                  
BLUE HILL        N/A     47  43  86 S9        29.99S                  
NORWOOD        PTSUNNY   51  44  77 S6        30.01S                  
MARSHFIELD     SUNNY     48  48 100 S7        30.01F                  
PLYMOUTH       CLOUDY    45  43  93 VRB3      30.01F FOG              
TAUNTON        CLOUDY    49  44  83 SW5       30.02F                  
NEW BEDFORD    PTSUNNY   48  46  93 S5        30.02F                  
$$

MAZALL-101300-
CAPE COD AND THE ISLANDS
  
CITY           SKY/WX    TMP DP  RH WIND       PRES   REMARKS
FALMOUTH       FOG       45  45 100 W12       30.03F VSB 1/2          
HYANNIS        FOG       46  44  93 SW7       30.02F VSB 1/2          
CHATHAM        FOG       45  44  97 SW7       30.04F VSB 1/4          
PROVINCETOWN   LGT RAIN  43  43 100 S9        30.02  VSB 1/4          
NANTUCKET      FOG       42  42 100 SW6       30.05F VSB 1/4          
MARTHAS VNYRD  FOG       46  46 100 CALM      30.04S VSB 1/4          
$$
 
MAZALL-101300-
CENTRAL AND WESTERN MASSACHUSETTS
  
CITY           SKY/WX    TMP DP  RH WIND       PRES   REMARKS
WORCESTER      PTSUNNY   53  41  63 W10       30.01R                  
6HR MIN TEMP:  51; 6HR MAX TEMP:  53;                                

FITCHBURG      CLOUDY    54  46  74 NW8       30.00R                  
ORANGE         SUNNY     49  47  93 CALM      30.02S                  
SPRINGFIELD    PTSUNNY   51  44  78 CALM      30.02R                  
WESTFIELD      PTSUNNY   51  45  79 S5        30.03R                  
NORTH ADAMS    CLOUDY    52  43  71 CALM      30.02S                  
PITTSFIELD     MOSUNNY   49  43  80 NE3       30.01R                  
$$
 
RIZALL-101300-
RHODE ISLAND
  
CITY           SKY/WX    TMP DP  RH WIND       PRES   REMARKS
PROVIDENCE     CLOUDY    48  46  93 S7        30.04R                  
6HR MIN TEMP:  44; 6HR MAX TEMP:  48; 6HR PCP:  0.01;                

NEWPORT        FOG       45  45 100 VRB5      30.03S VSB 1/4          
BLOCK ISLAND   MOSUNNY   47  45  93 SW9       30.06R                  
SMITHFIELD     MOSUNNY   47  47 100 VRB5      30.02S                  
WESTERLY       CLOUDY    45  44  97 VRB7      30.05R FOG              
$$
 
CTZALL-101300-
CONNECTICUT
  
CITY           SKY/WX    TMP DP  RH WIND       PRES   REMARKS
BRADLEY INTL   PTSUNNY   51  44  77 SW6       30.03R                  
6HR MIN TEMP:  48; 6HR MAX TEMP:  53;                                

HARTFORD       PTSUNNY   52  45  77 S3        30.04R                  
BRIDGEPORT     CLOUDY    49  46  90 S3        30.06S                  
DANBURY        CLOUDY    52  46  80 W5        30.06R                  
GROTON         PTSUNNY   49  46  90 SW8       30.05R                  
NEW HAVEN      CLOUDY    50  46  86 SW6       30.06R                  
CHESTER          N/A    N/A N/A N/A CALM      30.05R                  
MERIDEN        CLOUDY    51  45  79 S5        30.05R                  
WILLIMANTIC    PTSUNNY   49  44  83 CALM      30.04R                  
OXFORD         CLOUDY    49  49 100 VRB6      30.06R                  
$$

MEZ002-015-021-024-NHZ003-005-008-011-012-014-VTZ005-008-101300-
NORTHERN NEW ENGLAND
  
CITY           SKY/WX    TMP DP  RH WIND       PRES   REMARKS
PORTLAND ME    MOSUNNY   46  43  89 CALM      29.98F                  
6HR MIN TEMP:  38; 6HR MAX TEMP:  46;                                

BANGOR ME      MOSUNNY   50  43  77 CALM      29.98F                  
CONCORD NH     SUNNY     47  42  83 CALM      29.99F                  
MANCHESTER NH  PTSUNNY   50  42  74 CALM      29.98F                  
NASHUA NH      CLOUDY    50  47  89 CALM      30.00S                  
PORTSMOUTH NH  MOSUNNY   49  46  90 CALM      29.99F                  
JAFFREY NH     PTSUNNY   50  46  86 S5        30.00S                  
KEENE NH       SUNNY     49  47  93 S5        30.02R                  
BURLINGTON VT  PTSUNNY   57  50  77 S3        29.98R                  
MT. WASHINGTON NOT AVBL                                               
$$

NYZ052-076-101300-
EASTERN NEW YORK
  
CITY           SKY/WX    TMP DP  RH WIND       PRES   REMARKS
ALBANY         CLOUDY    50  44  80 S7        30.03R                  
6HR MIN TEMP:  49; 6HR MAX TEMP:  53;                                

NEW YORK CITY  LGT RAIN  52  46  80 CALM      30.06R                  
6HR MIN TEMP:  50; 6HR MAX TEMP:  53; 6HR PCP: TRACE;                

$$
 
ANZALL-101300-
MARINE OBSERVATIONS
  
STATION/POSITION TIME  TEMP    WIND        PRES    VSBY  WAVE
                       AIR SEA DIR/SP/G                  HT/PER
                 (UTC) (F)     (DEG/KT/KT) (MB)    (MI)  (FT/S)
BOSTON BUOY      1150   44 45  170/  8/ 10 1016.4F         4/ 9
BUZZARDS BAY     1100          220/  8/  9 1018.2F
NANTUCKET SOUND  1150      46                N/A           1/ 3
MASS BAY-STELLWA 1104   45     190/  8/ 10 1015.5F  1 7/8  4/11
ISLE OF SHOALS   1100   47     200/ 11/ 11 1015.6F
S OF BLOCK IS    1126      46                N/A           3/10
$$

......................KEY.........................
  SKY/WX - SKY CONDITION/PRESENT WEATHER
  TMP    - TEMPERATURE IN FAHRENHEIT
  DWPT   - DEWPOINT IN FAHRENHEIT
  RH     - RELATIVE HUMIDITY IN PERCENT
  WIND   - DIRECTION AND SPEED IN MPH
  PRES   - MEAN SEA LEVEL PRESSURE IN INCHES OF HG
  WCI    - WIND CHILL INDEX
  VSB    - VISIBILITY IN MILES
  HX     - HEAT INDEX
  TC     - TEMPERATURE IN CELSIUS
  VRB    - VARIABLE WIND DIRECTION
  N/A    - NOT AVAILABLE
  
      

Other recent Regional Weather Roundups

Fri Apr 16, 10:05am

Fri Apr 16, 9:04am

Fri Apr 16, 8:04am

Fri Apr 16, 7:04am

Fri Apr 16, 6:04am

Fri Apr 16, 5:04am

Fri Apr 16, 4:04am

Fri Apr 16, 3:04am

Fri Apr 16, 2:04am

Fri Apr 16, 1:04am

Fri Apr 16, 12:04am

Thu Apr 15, 11:05pm

Thu Apr 15, 10:04pm

Thu Apr 15, 9:04pm

Thu Apr 15, 8:04pm

Thu Apr 15, 7:05pm

Thu Apr 15, 6:04pm

Thu Apr 15, 5:05pm

Thu Apr 15, 4:04pm

Thu Apr 15, 3:05pm

Thu Apr 15, 2:04pm

Thu Apr 15, 1:05pm

Thu Apr 15, 12:04pm

Thu Apr 15, 11:04am

Thu Apr 15, 10:05am

Thu Apr 15, 9:04am

Thu Apr 15, 8:04am

Thu Apr 15, 7:04am

Thu Apr 15, 6:04am

Thu Apr 15, 5:04am

Thu Apr 15, 4:04am

Thu Apr 15, 3:04am

Thu Apr 15, 2:04am

Thu Apr 15, 1:04am

Thu Apr 15, 12:04am

Wed Apr 14, 11:04pm

Wed Apr 14, 10:04pm

Wed Apr 14, 9:04pm

Wed Apr 14, 8:04pm

Wed Apr 14, 7:04pm

Wed Apr 14, 6:04pm

Wed Apr 14, 5:05pm

Wed Apr 14, 4:04pm

Wed Apr 14, 3:05pm

Wed Apr 14, 2:04pm

Wed Apr 14, 1:05pm

Wed Apr 14, 12:04pm

Wed Apr 14, 11:04am

Wed Apr 14, 10:04am

Wed Apr 14, 9:04am

Wed Apr 14, 8:04am

Wed Apr 14, 7:04am

Wed Apr 14, 6:04am

Wed Apr 14, 5:04am

Wed Apr 14, 4:04am

Wed Apr 14, 3:04am

Wed Apr 14, 2:04am

Wed Apr 14, 1:04am

Wed Apr 14, 12:04am

Tue Apr 13, 11:04pm

Tue Apr 13, 10:05pm

Tue Apr 13, 9:05pm

Tue Apr 13, 8:05pm

Tue Apr 13, 7:04pm

Tue Apr 13, 6:04pm

Tue Apr 13, 5:05pm

Tue Apr 13, 4:04pm

Tue Apr 13, 3:04pm

Tue Apr 13, 2:05pm

Tue Apr 13, 1:04pm

Tue Apr 13, 12:05pm

Tue Apr 13, 11:05am

Tue Apr 13, 10:04am

Tue Apr 13, 9:04am

Tue Apr 13, 8:04am

Tue Apr 13, 7:04am

Tue Apr 13, 6:04am

Tue Apr 13, 5:04am

Tue Apr 13, 4:04am

Tue Apr 13, 3:04am

Tue Apr 13, 2:04am

Tue Apr 13, 1:04am

Tue Apr 13, 12:05am

Mon Apr 12, 11:04pm

Mon Apr 12, 10:04pm

Mon Apr 12, 9:04pm

Mon Apr 12, 8:04pm

Mon Apr 12, 7:05pm

Mon Apr 12, 6:04pm

Mon Apr 12, 5:04pm

Mon Apr 12, 4:04pm

Mon Apr 12, 3:05pm

Mon Apr 12, 2:04pm

Mon Apr 12, 1:05pm

Mon Apr 12, 12:04pm

Mon Apr 12, 11:04am

Mon Apr 12, 10:04am

Mon Apr 12, 9:04am

Mon Apr 12, 8:04am

Mon Apr 12, 7:04am

Mon Apr 12, 6:04am

Mon Apr 12, 5:04am

Mon Apr 12, 4:04am

Mon Apr 12, 3:04am

Mon Apr 12, 2:04am

Mon Apr 12, 1:05am

Mon Apr 12, 12:04am

Sun Apr 11, 11:04pm

Sun Apr 11, 10:04pm

Sun Apr 11, 9:04pm

Sun Apr 11, 8:04pm

Sun Apr 11, 7:04pm

Sun Apr 11, 6:05pm

Sun Apr 11, 5:05pm

Sun Apr 11, 4:04pm

Sun Apr 11, 3:05pm

Sun Apr 11, 2:05pm

Sun Apr 11, 1:05pm

Sun Apr 11, 12:04pm

Sun Apr 11, 11:05am

Sun Apr 11, 10:05am

Sun Apr 11, 9:04am

Sun Apr 11, 8:04am

Sun Apr 11, 7:04am

Sun Apr 11, 6:04am

Sun Apr 11, 5:04am

Sun Apr 11, 4:04am

Sun Apr 11, 3:04am

Sun Apr 11, 2:04am

Sun Apr 11, 1:05am

Sun Apr 11, 12:04am

Sat Apr 10, 11:05pm

Sat Apr 10, 10:04pm

Sat Apr 10, 9:04pm

Sat Apr 10, 8:04pm

Sat Apr 10, 7:05pm

Sat Apr 10, 6:04pm

Sat Apr 10, 5:04pm

Sat Apr 10, 4:04pm

Sat Apr 10, 3:04pm

Sat Apr 10, 2:05pm

Sat Apr 10, 1:04pm

Sat Apr 10, 12:04pm

Sat Apr 10, 11:04am

Sat Apr 10, 10:04am

Sat Apr 10, 9:04am

Sat Apr 10, 7:04am

Sat Apr 10, 6:04am

Sat Apr 10, 5:04am

Sat Apr 10, 4:04am

Sat Apr 10, 3:04am

Sat Apr 10, 2:04am

Sat Apr 10, 1:05am

Sat Apr 10, 12:04am

Fri Apr 9, 11:04pm

Fri Apr 9, 10:05pm

Fri Apr 9, 9:04pm

Fri Apr 9, 8:05pm

Fri Apr 9, 7:05pm

Fri Apr 9, 6:04pm

Fri Apr 9, 5:04pm

Fri Apr 9, 4:05pm

Fri Apr 9, 3:05pm

Fri Apr 9, 2:04pm

Fri Apr 9, 1:04pm

Fri Apr 9, 12:04pm

Fri Apr 9, 11:05am

Meta data:

ID: 471667a5-ac37-40b7-96a2-bf9c16d973b4
Link: https://api.weather.gov/products/471667a5-ac37-40b7-96a2-bf9c16d973b4